Location: Bartshausen
(51.8454°N, 9.8167°E)
Time: 12:07:36
(UTC+00:00)

Cosmos 1153 Rocket - Pass Details

Date: 08 November 2025
Orbit: 952 x 1005 km, 82.9° (Epoch: 09 December)

Event Time Altitude Azimuth Distance (km) Brightness Sun altitude
Rises 03:36:31 0° 348° (NNW) 3,647 7.5 -26.5°
Reaches altitude 10° 03:39:01 10° 346° (NNW) 2,701 6.7 -26.1°
Maximum altitude 03:45:08 67° 265° (W) 1,042 4.3 -25.2°
Drops below altitude 10° 03:51:17 10° 184° (S) 2,713 6.7 -24.3°
Sets 03:53:48 0° 182° (S) 3,664 7.5 -23.9°
